sat.trackr.live / text

‹ back to catalog

QIANFAN-41

NORAD 62242 · 2024-232F

PAYLOAD ACTIVE UNKNOWN

§ Identity

Operator
Country
PRC
Launch date
2024-12-05
Launch site
TAISC
Launch vehicle
Mass (kg)
RCS (m²)

External: N2YO · Heavens-Above · Gunter

§ Orbital elements

Epoch: 2026-05-25T01:43:30.196992Z

Period
106.59 min
Inclination
89.0099°
Eccentricity
0.0015981
Mean motion
13.51005633 rev/d
Perigee alt
1,056.7 km
Apogee alt
1,080.5 km
Semi-major
7,446.7 km
B*
1.2881e-4
RAAN
24.7791°
Arg perigee
79.4387°
Mean anomaly
280.8563°
Rev number
12,130

§ Raw data

QIANFAN-411 62242U 24232F   26145.07187728  .00000095  00000+0  12881-3 0  99932 62242  89.0099  24.7791 0015981  79.4387 280.8563 13.51005633121301

JSON: /api/v1/satellites/62242 · /tle

For live sub-satellite position, see the globe view (requires WebGL).

§ Visibility from observer

Set your observer location to see the next 7 days of passes ≥ 10°. The values pass through the URL so the page stays shareable.

No JS? Fill the form by hand. The geolocation button needs JavaScript.